Weather in Bukanovskaya

Russia / Volgograd Oblast     49°40′32″N   42°19′02″E
temp.,
°C
wind,
m/s
gust,
m/s
humid.,
%
clouds,
%
prec.,
mm/h
press.,
hPa
HPBL,
m
25 february, thu
thu2500:00−14ssw246494 0.0 1039291
03:00−13ssw476897 0.0 1038366
06:00−13ssw4877100 0.0 1036409
09:00−11sw697699 0.0 1034416
12:00−9sw71172100 0.0 1031535
15:00−7sw81291100 0.4 1028527
18:00−6sw81590100 0.4 1025435
21:00−3wsw101793100 0.8 1022405
26 february, fri
fri2600:00−2w71495100 0.1 1020405
03:00+1w71496100 0.6 1019380
06:00+1w61298100 0.2 1018317
09:00+2w51198100 0.4 1019282
12:00+2w511100100 0.0 1018294
15:00+3w61399100 0.1 1017375
18:00+3w61397100 0.0 1015368
21:00+3w71497100 0.0 1014422
27 february, sat
sat2700:00+3wsw71495100 0.1 1012422
03:00+2w61495100 0.1 1011464
06:00+2w51194100 0.0 1010411
09:00+1wsw51194100 0.0 1009492
12:00+2w61190100 0.0 1008634
15:00+3wnw61088100 0.2 1008781
18:00+1w5109699 0.3 1007513
21:000w5109793 0.3 1008356
28 february, sun
sun2800:000w5109787 0.0 1007501
03:000w6119894 0.1 1008497
06:00−3nnw71085100 0.4 1009517
09:00−5nnw6872100 0.4 1011757
12:00−5nnw6869100 0.0 1013763
15:00−5nnw6869100 0.0 1014775
18:00−6nnw687499 0.0 1016750
21:00−7nnw587699 0.1 1019734
1 march, mon
mon100:00−9nnw5777100 0.0 1020641
03:00−9nnw4678100 0.1 1022634
06:00−9nnw4780100 0.0 1024607
09:00−9nnw4676100 0.0 1025612
12:00−6nnw566698 0.0 1027666
15:00−5nnw466061 0.0 1027762
18:00−6nnw47690 0.0 1028670
21:00−7nnw36780 0.0 1030514